Regional & State Weather Roundups


750 
ASUS44 KJAN 131110
RWRMS 
MISSISSIPPI HOURLY WEATHER ROUNDUP
NATIONAL WEATHER SERVICE JACKSON MS
500 AM CST WED DEC 13 2017
NOTE: "FAIR: INDICATES FEW OR NO CLOUDS BELOW 12,000 FEET WITH NO
SIGNIFICANT WEATHER AND/OR OBSTRUCTIONS TO VISIBILITY.
MSZ001>002-007>008-010>013-018>021-025>028-034>036-131200-
NORTHWEST MISSISSIPPI
  
CITY           SKY/WX    TMP DP  RH WIND       PRES   REMARKS
BATESVILLE     FAIR      23  21  93 CALM      30.11F                  
CLARKSDALE     PTCLDY    30  27  86 S3        30.09F                  
CLEVELAND      FAIR      31  25  78 S3        30.10S                  
GREENWOOD      PTCLDY    26  24  92 CALM      30.11F                  
GREENVILLE     CLOUDY    28  22  78 S5        30.10F WCI  23          
OXFORD         FAIR      23  21  93 CALM      30.09F                  
TUNICA           N/A    N/A N/A N/A SE6       30.09F                  
WINONA         FAIR      24  24 100 CALM      30.10F                  
$$
MSZ003>006-009-014>017-022>024-029>033-037>039-131200-
NORTHEAST MISSISSIPPI
  
CITY           SKY/WX    TMP DP  RH WIND       PRES   REMARKS
ABERDEEN       FAIR      23  23 100 CALM      30.12S                  
COLUMBUS AFB   CLOUDY    24  22  95 CALM      30.10F                  
CORINTH        FAIR      23  21  93 CALM      30.06F                  
GOLDN TRIANGLE   N/A    N/A N/A N/A MISG        N/A                   
STARKVILLE     FAIR      27  25  93 CALM      30.12S                  
TUPELO         CLOUDY    26  22  84 CALM      30.09F                  
$$
MSZ040-058-131200-
CENTRAL MISSISSIPPI
  
CITY           SKY/WX    TMP DP  RH WIND       PRES   REMARKS
JACKSON INTL   PTCLDY    30  25  81 CALM      30.11F                  
JACKSON HAWKNS CLOUDY    29  28  96 CALM      30.12F                  
MADISON        FAIR      28  28 100 CALM      30.12S                  
MERIDIAN KEY   CLOUDY    28  27  96 CALM      30.13F                  
MERIDIAN NAS   PTCLDY    29  26  89 CALM      30.13S                  
RAYMOND        FAIR      27  27 100 CALM      30.12F                  
VICKSBURG VKS  SUNNY     28  27  93 CALM      30.15R                  
$$
MSZ059>079-131200-
SOUTH MISSISSIPPI
  
CITY           SKY/WX    TMP DP  RH WIND       PRES   REMARKS
HATTIESBURG    CLOUDY    29  28  96 CALM      30.16S                  
LAUREL         FAIR      29  29 100 CALM      30.15S                  
MCCOMB         PTCLDY    30  26  85 CALM      30.14S                  
NATCHEZ        CLOUDY    27  26  96 S5        30.14F WCI  22          
PINE BELT      CLOUDY    27  24  89 CALM      30.14F                  
$$
MSZ080>082-131200-
COASTAL MISSISSIPPI
  
CITY           SKY/WX    TMP DP  RH WIND       PRES   REMARKS
BILOXI         CLOUDY    35  29  79 N5        30.15S WCI  31          
PASCAGOULA     CLEAR     30  27  88 CALM      30.16S                  
GULFPORT       CLOUDY    32  30  92 CALM      30.16R                  
$$
LAZ007>009-015>016-023>026-131200-
NORTHEAST LOUISIANA
  
CITY           SKY/WX    TMP DP  RH WIND       PRES   REMARKS
BASTROP        FAIR      27  26  98 CALM      30.13R                  
TALLULAH/VBURG PTCLDY    24  24 100 CALM      30.14F                  
VIDALIA          N/A    N/A N/A N/A MISG      30.14F                  
$$